[[{"header":{"parameterUnit":"m.s-1","parameterCategory":1,"la1":30.2991,"la2":30.254,"lo1":-89.0895,"lo2":-89.0444,"dy":0.0017,"dx":0.0017,"nx":28,"ny":28,"refTime":"2023-04-12T21:00:00:Z","depth":0,"parameterNumber":2,"parameterNumberName":"U-component_of_WINDS"},"data":[0,0,0,0,0,0,0,0,0,0,0,0,0,0,0,0,0,0,0,0,0,0,0,0,0,0,0,0,0,0,0,0,0,0,0,0,0,0,0,0,0,0,0,0,0,0,0,0,0,0,0,0,0,0,0,0,0,0,7.4655,7.4655,0,7.4651,7.4651,7.4651,7.4454,7.4449,7.4444,7.4439,7.4439,7.4444,7.4448,0,0,0,0,0,0,0,0,0,0,0,0,0,7.4496,7.45,7.4655,7.4655,7.4655,7.4651,7.4651,7.4651,7.4455,7.4449,7.4442,7.4436,7.4437,7.4443,7.4449,0,0,0,0,0,0,0,0,0,0,0,0,0,7.4536,7.4502,7.4655,7.4557,7.4548,7.4651,7.4651,7.4651,7.4456,7.4448,7.4441,7.4433,7.4435,7.4442,7.4449,7.4648,0,0,7.4471,7.4474,0,0,0,0,0,0,0,0,7.4534,7.4542,7.4571,7.4564,7.4554,7.4545,7.4594,7.465,7.4458,7.4491,7.4439,7.443,7.4481,7.4484,7.45,7.4648,7.4648,7.4472,7.4476,7.4479,7.4481,0,0,0,0,0,0,0,7.4532,7.4542,7.4653,7.4572,7.4561,7.4513,7.4511,7.4604,7.4529,7.4488,7.4473,7.4475,7.4474,7.4493,7.4498,7.4648,7.4472,7.4478,7.4483,7.4485,7.4953,7.4961,0,0,0,0,0,0,7.4542,7.4541,7.4654,7.4653,7.4525,7.4523,7.4519,7.4556,7.4528,7.4516,7.4482,7.4466,7.4485,7.449,7.4498,7.4723,7.4479,7.4486,7.449,7.4945,7.4955,7.4964,0,0,0,0,0,0,7.454,7.4554,7.4654,7.4593,7.4602,7.4533,7.4576,7.456,7.4578,7.4523,7.4509,7.4515,7.4479,7.4488,7.461,7.4721,7.4489,7.4496,7.4935,7.4948,7.4959,7.518,0,0,0,0,0,0,7.4536,7.4554,7.4629,7.4596,7.4606,7.4767,7.4583,7.4565,7.459,7.457,7.455,7.454,7.4474,7.4601,7.4618,7.4726,7.4501,7.4925,7.4941,7.4955,7.5162,7.5198,7.5228,0,0,0,0,0,7.4531,7.4693,7.4633,7.4648,7.4697,7.4773,7.4779,7.4698,7.46,7.4674,7.4638,7.454,7.4707,7.4615,7.4632,7.4745,7.4918,7.4937,7.4954,7.5147,7.5191,7.5228,0,0,0,0,0,0,7.4743,7.4687,7.462,7.4777,7.4781,7.474,7.4831,7.4748,7.4782,7.4761,7.4661,7.4659,7.4796,7.4784,7.4682,7.4933,7.4795,7.4818,7.4936,7.4977,7.5009,7.5007,7.4507,0,0,0,0,0,7.4808,7.4873,7.4821,7.4964,7.497,7.4901,7.4931,7.4868,7.4869,7.487,7.4844,7.485,7.4902,7.4939,7.4986,7.5161,7.5151,7.5247,7.528,7.5307,7.5327,7.5414,7.5454,7.5024,7.5024,7.5023,0,0,7.4943,7.492,7.4968,7.5006,7.5002,7.5071,7.4903,7.4986,7.5036,7.4883,7.4995,7.4977,7.4977,7.5125,7.5189,7.5119,7.5444,7.5331,7.5353,7.5357,7.5437,7.5478,7.5514,7.5036,7.5034,7.5032,0,0,7.5222,7.5214,7.5329,7.5327,7.5322,7.5274,7.5303,7.5274,7.5254,7.5365,7.5251,7.5311,7.5406,7.5408,7.5422,7.5701,7.5611,7.572,7.5891,7.5978,7.6011,7.6041,7.6136,7.6172,7.574,7.5741,7.5741,0,7.539,7.5489,7.5399,7.5487,7.5506,7.5369,7.5484,7.5488,7.55,7.5516,7.5437,7.555,7.5541,7.5686,7.5753,7.5771,7.5798,7.572,7.6014,7.6042,7.6068,7.6158,7.6194,7.5754,7.5752,7.5751,7.575,0,7.5694,7.5765,7.5859,7.5869,7.5899,7.6001,7.5926,7.5968,7.5903,7.5864,7.5978,7.5962,7.6,7.6031,7.597,7.6167,7.6122,7.6031,7.5889,7.6124,7.6205,7.624,7.5772,7.5768,7.5764,7.5761,0,0,7.6106,7.6063,7.6099,7.61,7.6083,7.6136,7.6232,7.6267,7.6302,7.6316,7.6391,7.6473,7.6387,7.6403,7.6341,7.6418,7.6634,7.6315,7.6314,7.6371,7.6845,7.691,7.6951,7.6575,7.6582,7.6587,7.6843,0,7.6372,7.6529,7.645,7.6617,7.6678,7.6549,7.6631,7.6631,7.6597,7.6645,7.6609,7.6666,7.6551,7.6558,7.6629,7.6593,7.6727,7.6574,7.6643,7.6646,7.6641,7.6995,7.7065,7.7308,7.6875,7.688,7.6884,0,7.6703,7.6725,7.6898,7.6865,7.6888,7.6964,7.6987,7.7036,7.7032,7.7002,7.7019,7.6938,7.7029,7.6892,7.7014,7.6911,7.6936,7.6922,7.693,7.6929,7.6776,7.7,7.7383,7.7418,7.6935,7.6931,7.6927,0,7.698,7.7054,7.7165,7.7171,7.7138,7.7192,7.7182,7.717,7.7195,7.7217,7.7231,7.7266,7.7284,7.7312,7.7242,7.715,7.7373,7.7231,7.7348,7.735,7.7397,7.7394,7.7786,7.7422,7.7422,7.7421,7.742,0,7.7283,7.7392,7.7288,7.7356,7.7474,7.7383,7.7502,7.7478,7.7468,7.7528,7.7422,7.7482,7.7388,7.7439,7.7386,7.7493,7.7503,7.748,7.7464,7.7487,7.7489,7.7498,7.7477,7.7431,7.7428,7.7427,7.7425,0,7.761,7.7545,7.7656,7.7615,7.7607,7.7695,7.7659,7.772,7.7679,7.7757,7.7771,7.7706,7.776,7.7694,7.7744,7.7708,7.7851,7.7813,7.7851,7.7838,7.7958,7.7945,7.8364,7.8412,7.8023,7.8027,7.8031,0,7.7805,7.7885,7.7851,7.7882,7.7876,7.793,7.7953,7.7867,7.7896,7.7896,7.7957,7.8001,7.803,7.8123,7.8081,7.8117,7.8075,7.822,7.808,7.8099,7.8071,7.8065,7.8071,7.8247,7.8252,7.8256,7.8259,0,7.8156,7.8119,7.8156,7.8181,7.8211,7.8228,7.8237,7.827,7.8179,7.8218,7.8269,7.8293,7.834,7.8385,7.8409,7.8399,7.8314,7.8304,7.8331,7.8353,7.837,7.8357,7.7924,7.8293,7.829,7.8287,7.8285,7.8284,7.8419,7.8482,7.8466,7.851,7.8507,7.8517,7.857,7.8534,7.8575,7.8604,7.8553,7.8617,7.8609,7.8632,7.8631,7.8681,7.8618,7.8661,7.8671,7.8681,7.8696,7.8367,7.8686,7.8685,7.8684,7.8683,7.8682,0,7.876,7.8742,7.8784,7.8796,7.8831,7.8747,7.8751,7.8786,7.8842,7.8841,7.8872,7.893,7.8972,7.8933,7.8967,7.9014,7.8976,7.9026,7.9019,7.9017,7.8753,7.8722,7.9056,7.9056,7.9056,7.9055,7.9055,7.9055,7.8941,7.9041,7.9002,7.9099,7.9081,7.9141,7.915,7.9158,7.9156,7.9224,7.9257,7.9231,7.9214,7.9246,7.928,7.9268,7.9283,7.9346,7.932,7.9073,7.9036,7.9001,7.8971,7.9352,7.9352,7.9578,7.958,7.9582]},{"header":{"parameterUnit":"m.s-1","parameterCategory":1,"la1":30.2991,"la2":30.254,"lo1":-89.0895,"lo2":-89.0444,"dy":0.0017,"dx":0.0017,"nx":28,"ny":28,"refTime":"2023-04-12T21:00:00:Z","depth":0,"parameterNumber":3,"parameterNumberName":"V-component_of_WINDS"},"data":[0,0,0,0,0,0,0,0,0,0,0,0,0,0,0,0,0,0,0,0,0,0,0,0,0,0,0,0,0,0,0,0,0,0,0,0,0,0,0,0,0,0,0,0,0,0,0,0,0,0,0,0,0,0,0,0,0,0,5.6671,5.6673,0,5.6944,5.6947,5.695,5.7025,5.7024,5.7022,5.7021,5.7294,5.7302,5.7311,0,0,0,0,0,0,0,0,0,0,0,0,0,5.6203,5.6211,5.667,5.6674,5.6677,5.6944,5.6947,5.6951,5.7026,5.7024,5.7022,5.702,5.7291,5.7301,5.7312,0,0,0,0,0,0,0,0,0,0,0,0,0,5.6434,5.6214,5.667,5.6747,5.6756,5.6943,5.6948,5.6952,5.7026,5.7024,5.7021,5.7019,5.7287,5.73,5.7313,5.7441,0,0,5.7353,5.7359,0,0,0,0,0,0,0,0,5.6421,5.6451,5.6732,5.6742,5.6753,5.6948,5.6883,5.7116,5.7027,5.6923,5.7021,5.7018,5.718,5.7202,5.7258,5.7454,5.7465,5.7354,5.7362,5.7368,5.7372,0,0,0,0,0,0,0,5.6405,5.644,5.6778,5.6736,5.6749,5.6764,5.6795,5.6927,5.7061,5.6932,5.6938,5.697,5.7185,5.7245,5.7265,5.7469,5.7354,5.7366,5.7374,5.7379,5.778,5.7782,0,0,0,0,0,0,5.6377,5.6426,5.677,5.6787,5.6578,5.6775,5.6809,5.6888,5.706,5.7084,5.6972,5.6972,5.7224,5.725,5.7275,5.7434,5.7368,5.738,5.7388,5.7777,5.778,5.7783,0,0,0,0,0,0,5.6366,5.6407,5.6759,5.6608,5.6654,5.6785,5.6874,5.6894,5.6955,5.709,5.7114,5.7009,5.7223,5.7257,5.7399,5.7445,5.7386,5.7398,5.7773,5.7778,5.7782,5.7754,0,0,0,0,0,0,5.6353,5.6403,5.6455,5.6609,5.6662,5.6881,5.6877,5.6901,5.6978,5.6982,5.7131,5.7154,5.7224,5.7379,5.7412,5.7462,5.7408,5.777,5.7775,5.778,5.7752,5.7757,5.7762,0,0,0,0,0,5.6336,5.6435,5.6457,5.6498,5.673,5.6883,5.6913,5.6994,5.6981,5.7033,5.712,5.7149,5.7434,5.7393,5.7431,5.7485,5.7767,5.7774,5.778,5.775,5.7756,5.7762,0,0,0,0,0,0,5.6282,5.6457,5.6483,5.6636,5.6744,5.6896,5.6964,5.6999,5.7111,5.711,5.7203,5.7236,5.7371,5.7442,5.7393,5.7616,5.7601,5.7615,5.7565,5.7572,5.7577,5.7557,5.7419,0,0,0,0,0,5.6288,5.64,5.6546,5.6666,5.672,5.6832,5.6902,5.6955,5.7069,5.7115,5.7212,5.732,5.7434,5.7507,5.762,5.7762,5.7794,5.7818,5.7823,5.7826,5.7837,5.7915,5.7926,5.7804,5.7804,5.7804,0,0,5.6301,5.6411,5.6475,5.6658,5.6749,5.6859,5.687,5.6988,5.707,5.7132,5.7273,5.7347,5.7474,5.7616,5.7683,5.7679,5.7878,5.7834,5.7836,5.7845,5.7923,5.7934,5.7944,5.7808,5.7807,5.7807,0,0,5.6382,5.6477,5.6587,5.6677,5.6814,5.6888,5.6914,5.706,5.7112,5.7255,5.7303,5.74,5.7595,5.7683,5.7753,5.7863,5.7894,5.7897,5.7923,5.7998,5.8008,5.8017,5.8054,5.8067,5.7908,5.7908,5.7908,0,5.6381,5.6553,5.6639,5.6754,5.6832,5.6894,5.7004,5.7086,5.7252,5.7302,5.7296,5.754,5.763,5.7792,5.7819,5.7874,5.7904,5.7881,5.8,5.801,5.8019,5.8056,5.807,5.7907,5.7907,5.7907,5.7907,0,5.6543,5.6661,5.6733,5.6893,5.6979,5.709,5.719,5.7266,5.731,5.7383,5.7525,5.7635,5.777,5.7812,5.7856,5.798,5.7973,5.7982,5.7969,5.8029,5.8065,5.808,5.7906,5.7906,5.7907,5.7907,0,0,5.6599,5.6804,5.6829,5.6901,5.7055,5.7147,5.7259,5.7393,5.7455,5.7566,5.7661,5.7823,5.7832,5.7911,5.7965,5.803,5.8108,5.8031,5.8035,5.804,5.8248,5.824,5.8255,5.8129,5.8132,5.8134,5.8237,0,5.6699,5.6906,5.6985,5.7153,5.7262,5.7321,5.7419,5.7522,5.7592,5.7692,5.7769,5.7882,5.7886,5.7933,5.8001,5.8084,5.8151,5.8078,5.8215,5.8219,5.8182,5.8274,5.8267,5.8359,5.8252,5.8254,5.8256,0,5.6843,5.6957,5.7136,5.7275,5.7323,5.741,5.7537,5.7633,5.7749,5.7796,5.7883,5.7932,5.8049,5.8028,5.8188,5.8137,5.8197,5.8246,5.8251,5.8267,5.8241,5.8291,5.839,5.8403,5.8279,5.8278,5.8276,0,5.6864,5.7062,5.7194,5.7254,5.742,5.7479,5.755,5.7665,5.7739,5.7849,5.7897,5.8018,5.8084,5.8175,5.8254,5.8232,5.8406,5.8392,5.8445,5.8443,5.848,5.8476,5.8589,5.852,5.8519,5.8519,5.8519,0,5.6967,5.7073,5.7206,5.7287,5.7407,5.7495,5.761,5.7685,5.7786,5.788,5.7938,5.8024,5.8124,5.8222,5.8284,5.8406,5.8436,5.8474,5.8489,5.8469,5.8464,5.851,5.8505,5.8523,5.8522,5.8521,5.8521,0,5.7011,5.7104,5.7252,5.7396,5.7435,5.7517,5.7639,5.7718,5.779,5.7908,5.7941,5.8053,5.8172,5.826,5.8413,5.8454,5.8583,5.86,5.8545,5.8553,5.86,5.8594,5.8746,5.8769,5.8684,5.8685,5.8686,0,5.707,5.7154,5.7307,5.7375,5.7446,5.7556,5.7632,5.772,5.7796,5.7934,5.7995,5.8118,5.8222,5.8407,5.8501,5.8617,5.8635,5.868,5.8653,5.8629,5.8634,5.8628,5.8636,5.8684,5.8684,5.8685,5.8685,0,5.7164,5.7206,5.7315,5.7439,5.7529,5.7631,5.7733,5.7785,5.7891,5.7973,5.8096,5.8175,5.8331,5.8451,5.8577,5.8646,5.8682,5.8693,5.8711,5.8691,5.8655,5.8673,5.8554,5.8689,5.8689,5.8688,5.8688,5.8688,5.7217,5.7293,5.7413,5.7531,5.7618,5.7711,5.7792,5.7875,5.798,5.8115,5.816,5.8286,5.8397,5.8569,5.864,5.8737,5.8737,5.8764,5.877,5.8775,5.8773,5.864,5.8761,5.8761,5.8761,5.8761,5.8761,0,5.7313,5.7392,5.7501,5.7643,5.7735,5.7763,5.7876,5.7951,5.8062,5.8164,5.8264,5.8403,5.8519,5.8621,5.8741,5.8799,5.8818,5.8827,5.8823,5.8838,5.8767,5.8739,5.8809,5.8809,5.8809,5.8809,5.8809,5.8809,5.7374,5.7504,5.7559,5.773,5.7809,5.7934,5.7997,5.8082,5.8164,5.8317,5.8415,5.8481,5.8582,5.8709,5.8815,5.8842,5.8882,5.8887,5.8917,5.8849,5.8843,5.8838,5.8811,5.8895,5.8896,5.898,5.8981,5.8981]}]]